Tiempo atmosférico en la estación meteorológica de El Pinar, Depósito, Santa Cruz de Tenerife (948 m.)



Fecha
DESCASC
Temp. máxima en grados centígrados (hora)
DESCASC
Temp. mínima en grados centígrados (hora)
DESCASC
Temp. media en grados centígrados
DESCASC
Racha de viento máxima en m/sg (hora)
DESCASC
Velocidad máxima media en intervalos de 10 minutos(hora)
DESCASC
Precipitaciones diarias en mm
DESCASC
Precipitaciones de 00:00 a 06:00 en mm
DESCASC
Precipitaciones de 06:00 a 12:00 en mm
DESCASC
Precipitaciones de 12:00 a 18:00 en mm
DESCASC
Precipitaciones de 18:00 a 24:00 en mm
DESCASC
18-02-2018 14.1 (14:30) 7.4 (08:00) 10.8 7.78 (11:10) 3.61 (11:10) 0 0 0 0 0
17-02-2018 16.2 (16:00) 6.1 (07:30) 11.2 8.61 (00:20) 3.61 (00:20) 0 0 0 0 0
16-02-2018 16.4 (14:20) 8.2 (08:00) 12.3 8.33 (23:40) 3.89 (23:00) 0 0 0 0 0
15-02-2018 15.3 (13:30) 10.2 (00:00) 12.8 12.78 (10:50) 4.72 (10:50) 0 0 0 0 0
14-02-2018 14.6 (14:50) 4 (00:00) 9.3 6.39 (13:30) 3.06 (13:40) 0 0 0 0 0
13-02-2018 11.5 (16:20) 4.6 (00:00) 8 7.22 (10:20) 3.61 (12:00) 0 0 0 0 0
12-02-2018 11.6 (13:50) 7.6 (00:00) 9.6 8.33 (07:10) 3.61 (16:00) 0.2 0 0.2 0 0
11-02-2018 12.1 (13:30) 8 (00:00) 10.1 10.83 (00:10) 4.72 (00:10) 0 0 0 0 0
10-02-2018 13.5 (16:10) 7.8 (00:00) 10.7 11.67 (23:20) 4.72 (12:20) 1.8 1 0.4 0 0.4
09-02-2018 11.5 (13:00) 6.9 (00:00) 9.2 12.78 (14:50) 4.17 (10:10) 1.4 0.6 0.4 0 0.4
08-02-2018 10.5 (13:20) 6.4 (00:00) 8.5 17.22 (10:40) 5.28 (10:30) 1.2 0.4 0.2 0.2 0.4
07-02-2018 11.3 (11:50) 6.9 (00:00) 9.1 14.72 (18:20) 5.83 (19:30) 1.6 0 0.4 0.6 0.6
06-02-2018 10.4 (14:10) 6.7 (00:00) 8.5 13.33 (16:40) 4.17 (14:50) 0.6 0 0.4 0.2 0
05-02-2018 11.6 (14:50) 7.8 (00:00) 9.7 13.61 (04:50) 4.44 (05:00) 4 0.4 3.4 0.2 0
04-02-2018 12.5 (16:20) 7.9 (00:00) 10.2 11.39 (10:20) 5 (10:20) 0.2 0 0.2 0 0
03-02-2018 12.8 (14:10) 7.8 (00:00) 10.3 15 (11:40) 5.83 (10:10) 1.2 1.2 0 0 0
02-02-2018 11.5 (11:30) 8.1 (00:00) 9.8 14.72 (23:00) 4.44 (22:40) 5 0.4 4.4 0 0.2
01-02-2018 11.7 (10:50) 7.5 (00:00) 9.6 20.83 (11:10) 5.56 (06:10) 1 0 0 1 0
31-01-2018 13.4 (12:50) 6.6 (00:00) 10 13.06 (23:40) 5.83 (23:40) 2.8 0 0 0 2.8
30-01-2018 12.4 (13:20) 7.5 (00:00) 9.9 16.11 (08:30) 4.17 (23:10) 2.4 0 2.2 0.2 0
29-01-2018 12.5 (14:50) 6 (00:00) 9.3 13.61 (11:50) 4.72 (15:30) 1.4 0 0 1.4 0
28-01-2018 12.1 (12:40) 7.2 (00:00) 9.7 15.56 (04:30) 5.83 (09:20) 0.4 0 0.2 0.2 0
27-01-2018 12.3 (14:40) 7.9 (00:00) 10.1 17.5 (10:30) 6.39 (07:10) 0 0 0 0 0
26-01-2018 13.1 (10:50) 8.6 (00:00) 10.9 14.44 (12:00) 5.28 (09:50) 1.2 0 0 0.6 0.6
25-01-2018 17.5 (14:40) 6.8 (00:00) 12.2 9.17 (22:10) 3.33 (20:10) 0 0 0 0 0
24-01-2018 18.8 (13:50) 8 (00:00) 13.4 7.5 (11:20) 3.33 (11:30) 0 0 0 0 0
23-01-2018 17.1 (16:10) 7.7 (00:00) 12.4 6.94 (00:10) 3.61 (00:10) 0 0 0 0 0
22-01-2018 17.4 (15:20) 6.6 (00:00) 12 8.06 (23:50) 3.61 (23:50) 0 0 0 0 0

Gráficas

Temp. máximas Temp. mínimas Temp. medias Precipitaciones Rachas de viento máximas Velocidades máximas media en intervalos de 10 minutos

Datos horarios

Fecha y hora oficial Temperatura (ºC) Velocidad del viento (km/h) Dirección del viento Racha (km/h) Dirección de racha Precipitación (mm) Presión (hPa) Tendencia (hPa) Humedad (%)
2018-02-20 23:00:00 8.3 6 Norte 22 Nordeste 0 -- -- 84
2018-02-20 22:00:00 9.2 6 Nordeste 19 Nordeste 0 -- -- 81
2018-02-20 21:00:00 9.3 5 Nordeste 22 Norte 0 -- -- 85
2018-02-20 20:00:00 9.6 8 Nordeste 23 Norte 0 -- -- 87
2018-02-20 19:00:00 10.1 4 Nordeste 19 Este 0 -- -- 82
2018-02-20 18:00:00 10.7 7 Este 19 Nordeste 0 -- -- 84
2018-02-20 17:00:00 11.2 6 Norte 22 Noroeste 0 -- -- 75
2018-02-20 16:00:00 12.6 5 Norte 23 Nordeste 0 -- -- 67
2018-02-20 15:00:00 13.1 9 Este 24 Norte 0 -- -- 72
2018-02-20 14:00:00 12.3 8 Nordeste 28 Nordeste 0 -- -- 70
2018-02-20 13:00:00 11.5 8 Norte 27 Norte 0 -- -- 77
2018-02-20 12:00:00 11.6 8 Norte 30 Norte 0 -- -- 77
2018-02-20 11:00:00 11 10 Norte 27 Norte 0 -- -- 81
2018-02-20 10:00:00 10.3 6 Nordeste 20 Norte 0 -- -- 89
2018-02-20 09:00:00 10.9 5 Este 23 Norte 0 -- -- 79
2018-02-20 08:00:00 7.8 9 Norte 23 Norte 0 -- -- 87
2018-02-20 07:00:00 7.5 6 Norte 18 Norte 0 -- -- 90
2018-02-20 06:00:00 6.5 8 Norte 20 Norte 0 -- -- 89
2018-02-20 05:00:00 7.1 7 Norte 24 Noroeste 0 -- -- 87
2018-02-20 04:00:00 7.1 7 Noroeste 22 Noroeste 0 -- -- 87
2018-02-20 03:00:00 7.4 10 Norte 28 Norte 0 -- -- 86
2018-02-20 02:00:00 7.6 10 Norte 22 Norte 0 -- -- 87
2018-02-20 01:00:00 8.7 5 Este 20 Norte 0 -- -- 89
2018-02-20 00:00:00 9.2 8 Este 24 Nordeste 0 -- -- 90
2018-02-19 23:00:00 8.5 9 Nordeste 21 Nordeste 0 -- -- 88
2018-02-19 22:00:00 8.7 5 Nordeste 18 Norte 0 -- -- 89
2018-02-19 21:00:00 8.6 10 Norte 25 Norte 0 -- -- 86
2018-02-19 20:00:00 8.6 12 Norte 24 Norte 0 -- -- 87
2018-02-19 19:00:00 9.4 8 Norte 19 Nordeste 0 -- -- 84
2018-02-19 18:00:00 10.3 5 Nordeste 17 Norte 0 -- -- 82
2018-02-19 17:00:00 11 5 Nordeste 22 Nordeste 0 -- -- 83
2018-02-19 16:00:00 11.1 8 Este 28 Norte 0 -- -- 81
2018-02-19 15:00:00 11.3 5 Nordeste 23 Nordeste 0 -- -- 88
2018-02-19 14:00:00 12.4 7 Nordeste 28 Norte 0 -- -- 81
2018-02-19 13:00:00 12.2 11 Norte 31 Norte 0 -- -- 74
2018-02-19 12:00:00 12.9 10 Norte 30 Norte 0 -- -- 72
2018-02-19 11:00:00 12.4 11 Nordeste 30 Noroeste 0 -- -- 74
2018-02-19 10:00:00 11.1 9 Nordeste 21 Norte 0 -- -- 81
2018-02-19 09:00:00 10 8 Nordeste 22 Este 0 -- -- 85
2018-02-19 08:00:00 8.5 5 Norte 26 Norte 0 -- -- 86
2018-02-19 07:00:00 8 7 Norte 24 Norte 0 -- -- 84
2018-02-19 06:00:00 7.7 6 Nordeste 17 Este 0 -- -- 82
2018-02-19 05:00:00 8.2 7 Nordeste 34 Norte 0 -- -- 79
2018-02-19 04:00:00 7.7 4 Norte 20 Este 0 -- -- 81
2018-02-19 03:00:00 7.8 6 Nordeste 19 Nordeste 0 -- -- 83
2018-02-19 02:00:00 8 6 Nordeste 22 Este 0 -- -- 83
2018-02-19 01:00:00 7.7 9 Norte 20 Norte 0 -- -- 87
2018-02-19 00:00:00 7.6 4 Nordeste 16 Este 0 -- -- 84
2018-02-18 23:00:00 8.6 5 Norte 19 Nordeste 0 -- -- 77
2018-02-18 22:00:00 9.6 5 Sudeste 17 Nordeste 0 -- -- 91
2018-02-18 21:00:00 9.9 5 Este 17 Noroeste 0 -- -- 86
2018-02-18 20:00:00 10.1 4 Sudeste 15 Sur 0 -- -- 87
2018-02-18 19:00:00 10.3 4 Sudoeste 18 Norte 0 -- -- 84
2018-02-18 18:00:00 10.3 9 Norte 22 Norte 0 -- -- 80
2018-02-18 17:00:00 12.1 9 Norte 22 Norte 0 -- -- 71
2018-02-18 16:00:00 13.3 7 Nordeste 24 Norte 0 -- -- 68
2018-02-18 15:00:00 13.3 7 Noroeste 19 Nordeste 0 -- -- 68
2018-02-18 14:00:00 12.9 9 Sudeste 22 Este 0 -- -- 74
2018-02-18 13:00:00 12.5 8 Este 21 Sudeste 0 -- -- 76
2018-02-18 12:00:00 11.9 6 Este 28 Sudeste 0 -- -- 80
2018-02-18 11:00:00 12.4 12 Este 23 Sudeste 0 -- -- 74
2018-02-18 10:00:00 12.1 9 Sudeste 23 Este 0 -- -- 76
2018-02-18 09:00:00 10.4 7 Norte 22 Norte 0 -- -- 78
2018-02-18 08:00:00 7.4 6 Norte 18 Norte 0 -- -- 90
2018-02-18 07:00:00 7.8 6 Norte 24 Noroeste 0 -- -- 88
2018-02-18 06:00:00 8 5 Norte 22 Nordeste 0 -- -- 88
2018-02-18 05:00:00 8.7 6 Norte 26 Este 0 -- -- 85
2018-02-18 04:00:00 8.5 8 Norte 22 Nordeste 0 -- -- 85
2018-02-18 03:00:00 7.9 6 Nordeste 22 Nordeste 0 -- -- 87
2018-02-18 02:00:00 8.2 7 Nordeste 23 Este 0 -- -- 87
2018-02-18 01:00:00 8.3 8 Nordeste 27 Este 0 -- -- 84
2018-02-18 00:00:00 8.5 7 Norte 24 Norte 0 -- -- 83
2018-02-17 23:00:00 8.8 6 Este 24 Este 0 -- -- 92
2018-02-17 22:00:00 8 5 Este 11 Sudeste 0 -- -- 89
2018-02-17 21:00:00 7.9 2 Nordeste 12 Oeste 0 -- -- 82
2018-02-17 20:00:00 8.4 3 Noroeste 8 Oeste 0 -- -- 80
2018-02-17 19:00:00 11 2 Sudoeste 11 Noroeste 0 -- -- 70
2018-02-17 18:00:00 14.1 4 Noroeste 18 Noroeste 0 -- -- 57
2018-02-17 17:00:00 14.5 8 Noroeste 22 Oeste 0 -- -- 59
2018-02-17 16:00:00 16.2 8 Noroeste 21 Sudeste 0 -- -- 54
2018-02-17 15:00:00 15.2 5 Sur 15 Sudeste 0 -- -- 68
2018-02-17 14:00:00 15 9 Sudeste 17 Sudeste 0 -- -- 69
2018-02-17 13:00:00 15 11 Este 21 Este 0 -- -- 68
2018-02-17 12:00:00 15.7 11 Este 19 Sudeste 0 -- -- 55
2018-02-17 11:00:00 15.3 10 Sudeste 17 Sudeste 0 -- -- 57
2018-02-17 10:00:00 14.6 7 Sudeste 10 Sudeste 0 -- -- 66
2018-02-17 09:00:00 10.2 0 Calma 9 Norte 0 -- -- 66
2018-02-17 08:00:00 6.1 8 Norte 11 Norte 0 -- -- 66
2018-02-17 07:00:00 6.3 5 Norte 9 Norte 0 -- -- 66
2018-02-17 06:00:00 6.4 6 Norte 9 Norte 0 -- -- 69
2018-02-17 05:00:00 6.7 6 Norte 11 Noroeste 0 -- -- 67
2018-02-17 04:00:00 7.2 6 Norte 10 Norte 0 -- -- 61
2018-02-17 03:00:00 8.2 6 Norte 12 Norte 0 -- -- 57
2018-02-17 02:00:00 9.5 5 Norte 24 Norte 0 -- -- 49
2018-02-17 01:00:00 11.5 12 Norte 31 Norte 0 -- -- 42
2018-02-17 00:00:00 11.6 13 Norte 30 Norte 0 -- -- 43
2018-02-16 23:00:00 11.7 14 Norte 26 Norte 0 -- -- 40
2018-02-16 22:00:00 10.8 7 Norte 20 Noroeste 0 -- -- 44
2018-02-16 21:00:00 11.3 10 Norte 24 Norte 0 -- -- 51
2018-02-16 20:00:00 10.9 9 Norte 21 Norte 0 -- -- 50
2018-02-16 19:00:00 12.5 7 Norte 15 Nordeste 0 -- -- 57
2018-02-16 18:00:00 15.5 4 Norte 14 Sudeste 0 -- -- 53
2018-02-16 17:00:00 15.7 8 Nordeste 18 Nordeste 0 -- -- 44
2018-02-16 16:00:00 15 8 Este 21 Sudeste 0 -- -- 53
2018-02-16 15:00:00 15.7 10 Este 19 Sudeste 0 -- -- 49
2018-02-16 14:00:00 15.6 9 Este 18 Este 0 -- -- 46
2018-02-16 13:00:00 15.4 6 Este 18 Nordeste 0 -- -- 41
2018-02-16 12:00:00 15.5 10 Este 21 Sudeste 0 -- -- 37
2018-02-16 11:00:00 15.2 9 Sudeste 23 Este 0 -- -- 36
2018-02-16 10:00:00 14.1 9 Este 21 Este 0 -- -- 43
2018-02-16 09:00:00 11.7 4 Este 10 Norte 0 -- -- 59
2018-02-16 08:00:00 8.2 4 Norte 13 Este 0 -- -- 75
2018-02-16 07:00:00 8.8 4 Norte 17 Este 0 -- -- 79
2018-02-16 06:00:00 10.1 5 Este 15 Este 0 -- -- 63
2018-02-16 05:00:00 10.6 4 Nordeste 12 Este 0 -- -- 50
2018-02-16 04:00:00 11 4 Norte 12 Nordeste 0 -- -- 49
2018-02-16 03:00:00 10.6 4 Norte 10 Norte 0 -- -- 59
2018-02-16 02:00:00 11.4 4 Nordeste 16 Este 0 -- -- 63
2018-02-16 01:00:00 12.8 6 Este 20 Sudeste 0 -- -- 43
2018-02-16 00:00:00 12.4 5 Noroeste 21 Sudeste 0 -- -- 44
2018-02-15 23:00:00 12.7 11 Este 24 Este 0 -- -- 44
2018-02-15 22:00:00 12.3 6 Nordeste 15 Sur 0 -- -- 57
2018-02-15 21:00:00 12.2 5 Nordeste 16 Este 0 -- -- 49
2018-02-15 20:00:00 12.3 8 Sudeste 24 Este 0 -- -- 50
2018-02-15 19:00:00 12.6 3 Nordeste 10 Este 0 -- -- 47
2018-02-15 18:00:00 14.2 4 Nordeste 11 Este 0 -- -- 38
2018-02-15 17:00:00 14.5 6 Este 15 Nordeste 0 -- -- 37
2018-02-15 16:00:00 14.8 8 Este 22 Sudeste 0 -- -- 40
2018-02-15 15:00:00 15.3 7 Este 26 Sudeste 0 -- -- 38
2018-02-15 14:00:00 15.1 8 Nordeste 38 Este 0 -- -- 35
2018-02-15 13:00:00 15.1 12 Este 35 Sudeste 0 -- -- 37
2018-02-15 12:00:00 15.2 11 Este 40 Sudeste 0 -- -- 35
2018-02-15 11:00:00 14.9 12 Sudeste 46 Sudeste 0 -- -- 33
2018-02-15 10:00:00 14 9 Este 27 Norte 0 -- -- 35
2018-02-15 09:00:00 11.9 6 Norte 22 Sudeste 0 -- -- 39
2018-02-15 08:00:00 11.2 7 Nordeste 28 Este 0 -- -- 40
2018-02-15 07:00:00 11.5 10 Nordeste 31 Sur 0 -- -- 41
2018-02-15 06:00:00 10.9 4 Nordeste 19 Este 0 -- -- 38
2018-02-15 05:00:00 10.6 6 Nordeste 19 Nordeste 0 -- -- 42
2018-02-15 04:00:00 10.4 5 Nordeste 19 Nordeste 0 -- -- 41
2018-02-15 03:00:00 11 8 Este 20 Este 0 -- -- 36
2018-02-15 02:00:00 10.9 6 Nordeste 19 Nordeste 0 -- -- 34
2018-02-15 01:00:00 10.3 4 Oeste 18 Sur 0 -- -- 36
2018-02-15 00:00:00 10.6 6 Nordeste 14 Este 0 -- -- 33
2018-02-14 23:00:00 10 5 Norte 17 Este 0 -- -- 35
2018-02-14 22:00:00 8.8 4 Nordeste 19 Norte 0 -- -- 37
2018-02-14 21:00:00 7.5 8 Norte 17 Noroeste 0 -- -- 47
2018-02-14 20:00:00 7.5 6 Norte 10 Nordeste 0 -- -- 53
2018-02-14 19:00:00 10.3 6 Norte 9 Norte 0 -- -- 52
2018-02-14 18:00:00 13.9 5 Nordeste 13 Este 0 -- -- 42
2018-02-14 17:00:00 13.9 7 Este 16 Nordeste 0 -- -- 45
2018-02-14 16:00:00 13.8 7 Este 19 Este 0 -- -- 43
2018-02-14 15:00:00 14.5 10 Este 19 Sudeste 0 -- -- 43
2018-02-14 14:00:00 13.6 8 Este 23 Este 0 -- -- 51
2018-02-14 13:00:00 13.4 10 Este 20 Sudeste 0 -- -- 70
2018-02-14 12:00:00 12.9 9 Este 17 Este 0 -- -- 78
2018-02-14 11:00:00 11.5 8 Este 15 Nordeste 0 -- -- 85
2018-02-14 10:00:00 12.2 9 Este 14 Sudeste 0 -- -- 76
2018-02-14 09:00:00 8 2 Norte 10 Norte 0 -- -- 78
2018-02-14 08:00:00 4.1 8 Norte 11 Norte 0 -- -- 76
2018-02-14 07:00:00 4.1 9 Norte 12 Norte 0 -- -- 75
2018-02-14 06:00:00 4 9 Norte 11 Norte 0 -- -- 76
2018-02-14 05:00:00 4.1 9 Norte 11 Norte 0 -- -- 77
2018-02-14 04:00:00 4.2 8 Norte 11 Norte 0 -- -- 77
2018-02-14 03:00:00 4.2 8 Norte 10 Norte 0 -- -- 78
2018-02-14 02:00:00 4.3 8 Norte 11 Norte 0 -- -- 79
2018-02-14 01:00:00 4.4 8 Norte 10 Norte 0 -- -- 78
2018-02-14 00:00:00 4.6 8 Norte 10 Norte 0 -- -- 77
2018-02-13 23:00:00 4.8 7 Norte 11 Noroeste 0 -- -- 77
2018-02-13 22:00:00 5.1 8 Norte 10 Norte 0 -- -- 78
2018-02-13 21:00:00 5.6 8 Norte 10 Norte 0 -- -- 83
2018-02-13 20:00:00 8 5 Norte 7 Noroeste 0 -- -- 89
2018-02-13 19:00:00 10.3 3 Sudeste 15 Noroeste 0 -- -- 93
2018-02-13 18:00:00 10.5 4 Sudeste 14 Sudeste 0 -- -- 95
2018-02-13 17:00:00 10.5 6 Este 13 Sudeste 0 -- -- 95
2018-02-13 16:00:00 10.4 6 Este 20 Sudeste 0 -- -- 97
2018-02-13 15:00:00 10.1 6 Sur 22 Este 0 -- -- 98
2018-02-13 14:00:00 11.1 11 Este 20 Sudeste 0 -- -- 89
2018-02-13 13:00:00 10.8 10 Este 22 Este 0 -- -- 90
2018-02-13 12:00:00 11.3 13 Este 23 Este 0 -- -- 78
2018-02-13 11:00:00 9.3 9 Este 26 Sudeste 0 -- -- 100
2018-02-13 10:00:00 9.2 10 Sudeste 24 Sudeste 0 -- -- 100
2018-02-13 09:00:00 8.9 3 Este 16 Este 0 -- -- 98
2018-02-13 08:00:00 8.5 7 Nordeste 21 Este 0 -- -- 94
2018-02-13 07:00:00 8.6 8 Nordeste 22 Nordeste 0 -- -- 97
2018-02-13 06:00:00 8.5 8 Nordeste 19 Norte 0 -- -- 99
2018-02-13 05:00:00 8.8 5 Este 22 Norte 0 -- -- 99
2018-02-13 04:00:00 8.6 8 Nordeste 20 Nordeste 0 -- -- 99
2018-02-13 03:00:00 9.1 4 Sur 22 Sudeste 0 -- -- 100
2018-02-13 02:00:00 8.9 7 Norte 24 Este 0 -- -- 97
2018-02-13 01:00:00 8.9 5 Nordeste 13 Norte 0 -- -- 97
2018-02-13 00:00:00 8.8 5 Norte 19 Norte 0 -- -- 96
2018-02-12 23:00:00 8.9 5 Nordeste 19 Este 0 -- -- 96
2018-02-12 22:00:00 9.1 6 Nordeste 15 Norte 0 -- -- 91
2018-02-12 21:00:00 9 7 Este 20 Nordeste 0 -- -- 94
2018-02-12 20:00:00 8.7 7 Nordeste 26 Este 0 -- -- 90
2018-02-12 19:00:00 8.8 5 Norte 18 Noroeste 0 -- -- 98
2018-02-12 18:00:00 9.2 7 Nordeste 20 Noroeste 0 -- -- 100
2018-02-12 17:00:00 9.5 7 Este 23 Sudeste 0 -- -- 100
2018-02-12 16:00:00 10.1 13 Sudeste 26 Sudeste 0 -- -- 97
2018-02-12 15:00:00 11.5 4 Este 15 Sudeste 0 -- -- 87
2018-02-12 14:00:00 11.2 11 Este 19 Este 0 -- -- 88
2018-02-12 13:00:00 10.4 4 Sur 17 Sudeste 0 -- -- 93
2018-02-12 12:00:00 9.4 6 Este 15 Sudeste 0 -- -- 99
2018-02-12 11:00:00 9.2 8 Este 20 Sudeste 0 -- -- 99
2018-02-12 10:00:00 8.9 3 Nordeste 10 Nordeste 0 -- -- 99
2018-02-12 09:00:00 8.4 4 Nordeste 24 Sudeste 0.2 -- -- 100
2018-02-12 08:00:00 8.5 8 Nordeste 30 Este 0 -- -- 100
2018-02-12 07:00:00 8.6 8 Nordeste 26 Nordeste 0 -- -- 96
2018-02-12 06:00:00 8 3 Norte 28 Nordeste 0 -- -- 92
2018-02-12 05:00:00 7.8 8 Norte 20 Norte 0 -- -- 91
2018-02-12 04:00:00 8 7 Nordeste 23 Este 0 -- -- 95
2018-02-12 03:00:00 8.1 12 Nordeste 26 Nordeste 0 -- -- 92
2018-02-12 02:00:00 8.1 8 Nordeste 23 Nordeste 0 -- -- 92
2018-02-12 01:00:00 7.9 7 Nordeste 28 Norte 0 -- -- 88
2018-02-12 00:00:00 8.2 8 Nordeste 31 Norte 0 -- -- 90
2018-02-11 23:00:00 8.3 11 Nordeste 31 Este 0 -- -- 89
2018-02-11 22:00:00 8.2 11 Este 28 Este 0 -- -- 87
2018-02-11 21:00:00 8.6 9 Nordeste 38 Nordeste 0 -- -- 89
2018-02-11 20:00:00 8.7 11 Nordeste 32 Norte 0 -- -- 87
2018-02-11 19:00:00 9 10 Nordeste 29 Nordeste 0 -- -- 88
2018-02-11 18:00:00 10 10 Nordeste 27 Norte 0 -- -- 85
2018-02-11 17:00:00 10.1 8 Nordeste 24 Norte 0 -- -- 85
2018-02-11 16:00:00 10.5 5 Nordeste 33 Norte 0 -- -- 87
2018-02-11 15:00:00 11.9 12 Nordeste 34 Norte 0 -- -- 77
2018-02-11 14:00:00 11.9 7 Nordeste 28 Noroeste 0 -- -- 80
2018-02-11 13:00:00 11.5 9 Sudeste 30 Sur 0 -- -- 79
2018-02-11 12:00:00 11.1 9 Oeste 28 Sudeste 0 -- -- 81
2018-02-11 11:00:00 11.7 7 Noroeste 30 Norte 0 -- -- 76
2018-02-11 10:00:00 9.5 9 Nordeste 33 Noroeste 0 -- -- 86
2018-02-11 09:00:00 9.4 10 Este 32 Este 0 -- -- 83
2018-02-11 08:00:00 8.1 13 Nordeste 39 Norte 0 -- -- 90
2018-02-11 07:00:00 8 9 Nordeste 26 Norte 0 -- -- 87
2018-02-11 06:00:00 8.3 10 Nordeste 37 Este 0 -- -- 90
2018-02-11 05:00:00 8.6 13 Nordeste 36 Nordeste 0 -- -- 93
2018-02-11 04:00:00 8.3 13 Nordeste 39 Este 0 -- -- 86
2018-02-11 03:00:00 8.1 9 Nordeste 34 Norte 0 -- -- 87
2018-02-11 02:00:00 8.5 14 Norte 31 Noroeste 0 -- -- 89
2018-02-11 01:00:00 9.1 12 Nordeste 39 Sudeste 0 -- -- 92
2018-02-11 00:00:00 9.6 13 Nordeste 42 Nordeste 0 -- -- 95
2018-02-10 23:00:00 9.5 11 Nordeste 39 Norte 0 -- -- 94
2018-02-10 22:00:00 9.7 11 Nordeste 35 Este 0 -- -- 93
2018-02-10 21:00:00 9.2 10 Norte 27 Nordeste 0 -- -- 91
2018-02-10 20:00:00 9.2 7 Norte 32 Norte 0.4 -- -- 91
2018-02-10 19:00:00 10.2 6 Nordeste 26 Norte 0 -- -- 91
2018-02-10 18:00:00 11.1 9 Norte 26 Nordeste 0 -- -- 84
2018-02-10 17:00:00 12.6 9 Nordeste 32 Norte 0 -- -- 74
2018-02-10 16:00:00 13.4 7 Este 26 Este 0 -- -- 69
2018-02-10 15:00:00 12.7 9 Nordeste 32 Norte 0 -- -- 76
2018-02-10 14:00:00 12.8 8 Este 31 Este 0 -- -- 76
2018-02-10 13:00:00 12.7 11 Este 39 Este 0 -- -- 74
2018-02-10 12:00:00 12 16 Nordeste 36 Nordeste 0 -- -- 78
2018-02-10 11:00:00 11.1 11 Nordeste 30 Norte 0 -- -- 85
2018-02-10 10:00:00 11.3 9 Norte 34 Norte 0 -- -- 85
2018-02-10 09:00:00 10 6 Nordeste 29 Norte 0 -- -- 92
2018-02-10 08:00:00 7.9 10 Norte 27 Norte 0 -- -- 96
2018-02-10 07:00:00 8.3 11 Norte 30 Norte 0.4 -- -- 97
2018-02-10 06:00:00 8.6 6 Nordeste 33 Nordeste 0.2 -- -- 98
2018-02-10 05:00:00 8.7 6 Norte 27 Nordeste 0 -- -- 98
2018-02-10 04:00:00 7.9 8 Norte 20 Nordeste 0.2 -- -- 97
2018-02-10 03:00:00 8 9 Norte 30 Norte 0.2 -- -- 98
2018-02-10 02:00:00 8.4 8 Nordeste 30 Norte 0 -- -- 98
2018-02-10 01:00:00 8.4 10 Nordeste 31 Norte 0.4 -- -- 98
2018-02-10 00:00:00 8.3 11 Norte 39 Nordeste 0.2 -- -- 98
2018-02-09 23:00:00 8.1 13 Norte 37 Nordeste 0.2 -- -- 96
2018-02-09 22:00:00 8.1 11 Norte 33 Noroeste 0 -- -- 90
2018-02-09 21:00:00 8 10 Norte 30 Nordeste 0 -- -- 92
2018-02-09 20:00:00 8.3 10 Norte 36 Norte 0 -- -- 93
2018-02-09 19:00:00 8.5 11 Norte 33 Nordeste 0 -- -- 91
2018-02-09 18:00:00 9.7 14 Nordeste 41 Este 0 -- -- 88
2018-02-09 17:00:00 10.1 12 Nordeste 37 Nordeste 0 -- -- 83
2018-02-09 16:00:00 10.1 7 Este 35 Norte 0 -- -- 86
2018-02-09 15:00:00 10.4 12 Nordeste 46 Sudeste 0 -- -- 83
2018-02-09 14:00:00 10.4 13 Nordeste 39 Nordeste 0 -- -- 87
2018-02-09 13:00:00 11.5 13 Nordeste 39 Nordeste 0 -- -- 79
2018-02-09 12:00:00 10.1 13 Nordeste 35 Norte 0 -- -- 86
2018-02-09 11:00:00 9.6 12 Nordeste 37 Norte 0 -- -- 90
2018-02-09 10:00:00 9.6 13 Nordeste 37 Norte 0 -- -- 86
2018-02-09 09:00:00 8.1 10 Nordeste 34 Nordeste 0.2 -- -- 95
2018-02-09 08:00:00 7.3 12 Norte 33 Norte 0.2 -- -- 94
2018-02-09 07:00:00 7.2 10 Nordeste 35 Norte 0 -- -- 95
2018-02-09 06:00:00 7.1 12 Nordeste 43 Norte 0.2 -- -- 92
2018-02-09 05:00:00 7.7 11 Norte 33 Nordeste 0.2 -- -- 93
2018-02-09 04:00:00 7.4 12 Norte 39 Norte 0 -- -- 86
2018-02-09 03:00:00 7.4 13 Norte 40 Este 0.2 -- -- 88
2018-02-09 02:00:00 7.5 13 Nordeste 40 Nordeste 0 -- -- 88
2018-02-09 01:00:00 7.3 13 Nordeste 45 Nordeste 0 -- -- 88
2018-02-09 00:00:00 7.3 15 Nordeste 43 Nordeste 0 -- -- 89
2018-02-08 23:00:00 7.2 12 Nordeste 42 Nordeste 0 -- -- 89
2018-02-08 22:00:00 7.4 13 Nordeste 49 Nordeste 0 -- -- 90
2018-02-08 21:00:00 7.2 12 Nordeste 42 Norte 0.2 -- -- 92
2018-02-08 20:00:00 7.5 12 Nordeste 39 Nordeste 0 -- -- 92
2018-02-08 19:00:00 7.5 12 Nordeste 41 Nordeste 0.2 -- -- 88
2018-02-08 18:00:00 8.8 14 Nordeste 46 Norte 0 -- -- 83
2018-02-08 17:00:00 8.6 13 Nordeste 44 Norte 0 -- -- 88
2018-02-08 16:00:00 8.7 13 Nordeste 39 Norte 0 -- -- 86
2018-02-08 15:00:00 9.7 13 Norte 48 Nordeste 0 -- -- 78
2018-02-08 14:00:00 9.7 15 Nordeste 45 Norte 0.2 -- -- 81
2018-02-08 13:00:00 9.7 15 Nordeste 48 Norte 0 -- -- 78
2018-02-08 12:00:00 9.8 16 Nordeste 52 Este 0 -- -- 78
2018-02-08 11:00:00 9.3 17 Nordeste 62 Norte 0 -- -- 76
2018-02-08 10:00:00 8.2 14 Norte 46 Noroeste 0 -- -- 79
2018-02-08 09:00:00 7.8 17 Norte 48 Nordeste 0.2 -- -- 83
2018-02-08 08:00:00 6.4 16 Norte 51 Norte 0 -- -- 82
2018-02-08 07:00:00 6.4 12 Norte 37 Nordeste 0 -- -- 85
2018-02-08 06:00:00 6.6 10 Norte 40 Norte 0.4 -- -- 90
2018-02-08 05:00:00 6.8 10 Norte 29 Norte 0 -- -- 89
2018-02-08 04:00:00 7.3 10 Norte 38 Noroeste 0 -- -- 88
2018-02-08 03:00:00 7 10 Norte 37 Nordeste 0 -- -- 87
2018-02-08 02:00:00 7.2 8 Nordeste 33 Norte 0 -- -- 88
2018-02-08 01:00:00 7 13 Norte 42 Nordeste 0 -- -- 85
2018-02-08 00:00:00 7.4 14 Norte 42 Norte 0 -- -- 92
2018-02-07 23:00:00 7.3 11 Norte 45 Norte 0.6 -- -- 91
2018-02-07 22:00:00 7.8 14 Norte 49 Norte 0 -- -- 86
2018-02-07 21:00:00 7.8 16 Norte 51 Nordeste 0 -- -- 89
2018-02-07 20:00:00 8.1 19 Norte 49 Nordeste 0 -- -- 89
2018-02-07 19:00:00 8.1 16 Norte 53 Este 0 -- -- 84
2018-02-07 18:00:00 8.6 15 Norte 48 Noroeste 0 -- -- 87
2018-02-07 17:00:00 9.2 12 Norte 43 Norte 0 -- -- 86
2018-02-07 16:00:00 9.8 15 Norte 45 Nordeste 0.2 -- -- 86
2018-02-07 15:00:00 10.6 11 Nordeste 34 Nordeste 0.2 -- -- 83
2018-02-07 14:00:00 10.6 10 Este 33 Norte 0.2 -- -- 85
2018-02-07 13:00:00 9.8 10 Norte 30 Norte 0 -- -- 84
2018-02-07 12:00:00 10.9 9 Norte 26 Nordeste 0 -- -- 76
2018-02-07 11:00:00 10.3 7 Norte 43 Noroeste 0 -- -- 76
2018-02-07 10:00:00 10.5 11 Norte 31 Norte 0 -- -- 74
2018-02-07 09:00:00 9 7 Nordeste 26 Norte 0 -- -- 73
2018-02-07 08:00:00 7.4 9 Norte 34 Norte 0.4 -- -- 90
2018-02-07 07:00:00 7.5 12 Norte 37 Norte 0 -- -- 81
2018-02-07 06:00:00 7.4 8 Nordeste 32 Norte 0 -- -- 83
2018-02-07 05:00:00 7.6 12 Nordeste 38 Nordeste 0 -- -- 82
2018-02-07 04:00:00 7.3 10 Nordeste 31 Nordeste 0 -- -- 86
2018-02-07 03:00:00 7.5 7 Norte 32 Norte 0 -- -- 87
2018-02-07 02:00:00 7.6 9 Nordeste 32 Nordeste 0 -- -- 86
2018-02-07 01:00:00 7.5 11 Nordeste 39 Norte 0 -- -- 83
2018-02-07 00:00:00 7.3 12 Norte 39 Nordeste 0 -- -- 84
2018-02-06 23:00:00 7.4 12 Nordeste 35 Norte 0 -- -- 85
2018-02-06 22:00:00 7.8 9 Nordeste 28 Nordeste 0 -- -- 85
2018-02-06 21:00:00 7.6 10 Nordeste 29 Norte 0 -- -- 86
2018-02-06 20:00:00 7.9 10 Nordeste 31 Este 0 -- -- 87
2018-02-06 19:00:00 8 11 Nordeste 33 Nordeste 0 -- -- 84
2018-02-06 18:00:00 9.1 12 Nordeste 39 Nordeste 0 -- -- 76
2018-02-06 17:00:00 8.9 13 Nordeste 48 Norte 0.2 -- -- 83
2018-02-06 16:00:00 9.5 10 Nordeste 29 Norte 0 -- -- 86
2018-02-06 15:00:00 10.2 12 Nordeste 39 Este 0 -- -- 78
2018-02-06 14:00:00 10.3 14 Nordeste 33 Nordeste 0 -- -- 74
2018-02-06 13:00:00 10.1 12 Nordeste 38 Este 0 -- -- 81
2018-02-06 12:00:00 8.4 10 Nordeste 33 Nordeste 0.2 -- -- 84
2018-02-06 11:00:00 8.8 9 Este 27 Norte 0.2 -- -- 88
2018-02-06 10:00:00 9.3 7 Nordeste 23 Norte 0 -- -- 82
2018-02-06 09:00:00 7.8 6 Nordeste 27 Este 0 -- -- 88
2018-02-06 08:00:00 7.1 7 Nordeste 22 Nordeste 0 -- -- 86
2018-02-06 07:00:00 7 8 Nordeste 27 Nordeste 0 -- -- 84
2018-02-06 06:00:00 7 8 Nordeste 26 Nordeste 0 -- -- 84
2018-02-06 05:00:00 7.8 8 Nordeste 24 Este 0 -- -- 87
2018-02-06 04:00:00 7.6 7 Nordeste 22 Este 0 -- -- 85
2018-02-06 03:00:00 7.5 8 Nordeste 26 Este 0 -- -- 86
2018-02-06 02:00:00 7.9 8 Nordeste 23 Este 0 -- -- 86
2018-02-06 01:00:00 7.9 8 Nordeste 30 Nordeste 0 -- -- 87
2018-02-06 00:00:00 7.9 12 Nordeste 37 Norte 0 -- -- 85
2018-02-05 23:00:00 8.1 9 Norte 30 Nordeste 0 -- -- 83
2018-02-05 22:00:00 8.2 7 Nordeste 47 Nordeste 0 -- -- 85
2018-02-05 21:00:00 8.2 13 Nordeste 43 Nordeste 0 -- -- 82
2018-02-05 20:00:00 8.7 14 Nordeste 47 Norte 0 -- -- 76
2018-02-05 19:00:00 8.5 9 Nordeste 31 Norte 0 -- -- 83
2018-02-05 18:00:00 8.9 12 Norte 34 Nordeste 0 -- -- 86
2018-02-05 17:00:00 9.6 8 Norte 33 Nordeste 0.2 -- -- 88
2018-02-05 16:00:00 11 7 Norte 26 Nordeste 0 -- -- 80
2018-02-05 15:00:00 11.6 10 Nordeste 35 Norte 0 -- -- 80
2018-02-05 14:00:00 9.9 15 Nordeste 33 Este 0 -- -- 90
2018-02-05 13:00:00 9.9 12 Nordeste 36 Nordeste 0 -- -- 90
2018-02-05 12:00:00 9.7 11 Norte 33 Norte 1.4 -- -- 94
2018-02-05 11:00:00 10 10 Norte 31 Nordeste 0.2 -- -- 93
2018-02-05 10:00:00 9.6 8 Norte 29 Nordeste 0.8 -- -- 89
2018-02-05 09:00:00 9.3 10 Norte 27 Nordeste 0.6 -- -- 98
2018-02-05 08:00:00 8.3 6 Nordeste 23 Nordeste 0.4 -- -- 92
2018-02-05 07:00:00 8.7 15 Norte 37 Norte 0 -- -- 93
2018-02-05 06:00:00 8.5 8 Nordeste 31 Este 0 -- -- 86
2018-02-05 05:00:00 8.8 16 Noroeste 49 Norte 0 -- -- 91
2018-02-05 04:00:00 8.2 8 Norte 30 Norte 0 -- -- 86
2018-02-05 03:00:00 8.7 8 Nordeste 29 Nordeste 0.2 -- -- 93
2018-02-05 02:00:00 9 9 Nordeste 29 Norte 0.2 -- -- 92
2018-02-05 01:00:00 9.3 6 Este 32 Norte 0 -- -- 92
2018-02-05 00:00:00 9.5 8 Nordeste 28 Nordeste 0 -- -- 88
2018-02-04 23:00:00 9.2 11 Nordeste 28 Norte 0 -- -- 92
2018-02-04 22:00:00 9.2 10 Este 23 Nordeste 0 -- -- 93
2018-02-04 21:00:00 9.2 9 Nordeste 25 Nordeste 0 -- -- 90
2018-02-04 20:00:00 8.7 8 Nordeste 21 Sudeste 0 -- -- 88
2018-02-04 19:00:00 9.3 8 Nordeste 23 Nordeste 0 -- -- 90
2018-02-04 18:00:00 10.3 13 Este 34 Nordeste 0 -- -- 85
2018-02-04 17:00:00 11.7 12 Nordeste 40 Norte 0 -- -- 72
2018-02-04 16:00:00 12.4 9 Nordeste 30 Norte 0 -- -- 67
2018-02-04 15:00:00 11.9 11 Nordeste 33 Norte 0 -- -- 77
2018-02-04 14:00:00 11.3 10 Nordeste 36 Norte 0 -- -- 82
2018-02-04 13:00:00 12.1 10 Nordeste 35 Sudeste 0 -- -- 78
2018-02-04 12:00:00 11.9 6 Este 32 Este 0 -- -- 76
2018-02-04 11:00:00 11.1 10 Nordeste 41 Nordeste 0 -- -- 85
2018-02-04 10:00:00 10.1 12 Nordeste 28 Norte 0 -- -- 83
2018-02-04 09:00:00 8.7 8 Nordeste 26 Nordeste 0.2 -- -- 90
2018-02-04 08:00:00 8.3 9 Nordeste 37 Norte 0 -- -- 92
2018-02-04 07:00:00 8.2 11 Nordeste 31 Norte 0 -- -- 87
2018-02-04 06:00:00 8.3 7 Nordeste 19 Nordeste 0 -- -- 92
2018-02-04 05:00:00 8.4 4 Nordeste 32 Norte 0 -- -- 94
2018-02-04 04:00:00 8.1 10 Norte 39 Nordeste 0 -- -- 88
2018-02-04 03:00:00 8.5 10 Nordeste 36 Nordeste 0 -- -- 91
2018-02-04 02:00:00 8.3 9 Nordeste 39 Norte 0 -- -- 87
2018-02-04 01:00:00 8.6 13 Nordeste 40 Este 0 -- -- 91
2018-02-04 00:00:00 8.6 9 Nordeste 32 Noroeste 0 -- -- 92
2018-02-03 23:00:00 8.6 12 Norte 32 Nordeste 0 -- -- 92
2018-02-03 22:00:00 8.8 12 Nordeste 41 Nordeste 0 -- -- 90
2018-02-03 21:00:00 8.9 14 Norte 40 Norte 0 -- -- 92
2018-02-03 20:00:00 8.9 11 Nordeste 40 Norte 0 -- -- 91
2018-02-03 19:00:00 9 14 Nordeste 39 Nordeste 0 -- -- 89
2018-02-03 18:00:00 9.6 15 Norte 46 Norte 0 -- -- 85
2018-02-03 17:00:00 10.6 15 Nordeste 40 Norte 0 -- -- 89
2018-02-03 16:00:00 12 13 Nordeste 45 Norte 0 -- -- 75
2018-02-03 15:00:00 11.9 14 Norte 47 Norte 0 -- -- 82
2018-02-03 14:00:00 12.5 14 Norte 43 Norte 0 -- -- 73
2018-02-03 13:00:00 11.5 18 Nordeste 45 Norte 0 -- -- 77
2018-02-03 12:00:00 12 14 Norte 54 Nordeste 0 -- -- 75
2018-02-03 11:00:00 11.4 15 Norte 51 Norte 0 -- -- 74
2018-02-03 10:00:00 9.9 21 Norte 49 Norte 0 -- -- 86
2018-02-03 09:00:00 9 15 Norte 52 Norte 0 -- -- 92
2018-02-03 08:00:00 7.9 14 Norte 39 Nordeste 0 -- -- 92
2018-02-03 07:00:00 8.1 13 Nordeste 46 Nordeste 0 -- -- 90
2018-02-03 06:00:00 8 14 Nordeste 41 Nordeste 0 -- -- 91
2018-02-03 05:00:00 8 12 Nordeste 40 Nordeste 0.2 -- -- 93
2018-02-03 04:00:00 8.2 11 Nordeste 43 Nordeste 0.4 -- -- 96
2018-02-03 03:00:00 8.3 14 Norte 49 Norte 0.2 -- -- 95
2018-02-03 02:00:00 8.6 16 Nordeste 52 Nordeste 0.4 -- -- 95
2018-02-03 01:00:00 8.5 12 Norte 44 Nordeste 0 -- -- 88
2018-02-03 00:00:00 8.4 13 Norte 45 Norte 0 -- -- 87
2018-02-02 23:00:00 8.3 15 Norte 53 Norte 0.2 -- -- 89
2018-02-02 22:00:00 8.3 14 Norte 35 Nordeste 0 -- -- 85
2018-02-02 21:00:00 8.9 13 Norte 39 Noroeste 0 -- -- 88
2018-02-02 20:00:00 8.9 10 Norte 41 Norte 0 -- -- 91
2018-02-02 19:00:00 8.9 14 Nordeste 46 Norte 0 -- -- 87
2018-02-02 18:00:00 9.9 12 Nordeste 40 Norte 0 -- -- 86
2018-02-02 17:00:00 10.7 14 Nordeste 40 Nordeste 0 -- -- 81
2018-02-02 16:00:00 11 14 Nordeste 38 Norte 0 -- -- 84
2018-02-02 15:00:00 10.9 15 Norte 40 Este 0 -- -- 87
2018-02-02 14:00:00 11.2 15 Nordeste 38 Norte 0 -- -- 85
2018-02-02 13:00:00 11.1 15 Nordeste 46 Este 0 -- -- 87
2018-02-02 12:00:00 11 16 Nordeste 38 Nordeste 0 -- -- 88
2018-02-02 11:00:00 10.3 13 Nordeste 42 Nordeste 0.2 -- -- 93
2018-02-02 10:00:00 10.3 10 Norte 40 Nordeste 1.4 -- -- 94
2018-02-02 09:00:00 9.7 13 Norte 37 Norte 0.4 -- -- 93
2018-02-02 08:00:00 8.2 14 Norte 38 Norte 0.6 -- -- 96
2018-02-02 07:00:00 8.5 13 Norte 37 Norte 1.8 -- -- 96
2018-02-02 06:00:00 8.8 13 Norte 37 Norte 0.4 -- -- 93
2018-02-02 05:00:00 8.8 12 Norte 39 Norte 0 -- -- 90
2018-02-02 04:00:00 8.7 12 Norte 39 Norte 0 -- -- 86
2018-02-02 03:00:00 9.2 10 Nordeste 28 Nordeste 0 -- -- 88
2018-02-02 02:00:00 8.5 10 Norte 31 Norte 0 -- -- 86
2018-02-02 01:00:00 8.7 10 Nordeste 42 Norte 0 -- -- 83
2018-02-02 00:00:00 8.6 13 Norte 40 Norte 0 -- -- 84
2018-02-01 23:00:00 9.3 12 Norte 42 Nordeste 0 -- -- 82
2018-02-01 22:00:00 9.3 13 Norte 42 Nordeste 0 -- -- 85
2018-02-01 21:00:00 9.4 14 Norte 51 Norte 0 -- -- 86
2018-02-01 20:00:00 9.4 12 Norte 41 Norte 0 -- -- 88
2018-02-01 19:00:00 9.4 14 Norte 44 Noroeste 0 -- -- 90
2018-02-01 18:00:00 9.4 12 Norte 36 Norte 0 -- -- 86
2018-02-01 17:00:00 9.9 13 Norte 39 Noroeste 0.2 -- -- 84
2018-02-01 16:00:00 9.7 10 Norte 36 Nordeste 0.8 -- -- 89
2018-02-01 15:00:00 11.3 9 Nordeste 40 Norte 0 -- -- 79
2018-02-01 14:00:00 10.5 11 Nordeste 35 Este 0 -- -- 88
2018-02-01 13:00:00 11.1 14 Nordeste 46 Noroeste 0 -- -- 79
2018-02-01 12:00:00 11.3 13 Nordeste 75 Noroeste 0 -- -- 77
2018-02-01 11:00:00 11.2 14 Nordeste 48 Noroeste 0 -- -- 77
2018-02-01 10:00:00 10.8 13 Norte 42 Norte 0 -- -- 78
2018-02-01 09:00:00 9.3 14 Norte 45 Norte 0 -- -- 82
2018-02-01 08:00:00 8.4 15 Norte 38 Noroeste 0 -- -- 79
2018-02-01 07:00:00 8.4 9 Norte 49 Nordeste 0 -- -- 87
2018-02-01 06:00:00 8.1 15 Norte 48 Nordeste 0 -- -- 80
2018-02-01 05:00:00 7.8 16 Norte 44 Norte 0 -- -- 82
2018-02-01 04:00:00 7.6 17 Norte 44 Este 0 -- -- 82
2018-02-01 03:00:00 7.6 15 Norte 40 Norte 0 -- -- 83
2018-02-01 02:00:00 8.2 11 Norte 30 Norte 0 -- -- 85
2018-02-01 01:00:00 8.5 10 Norte 31 Nordeste 0 -- -- 86
2018-02-01 00:00:00 9 12 Norte 47 Norte 0 -- -- 89
2018-01-31 23:00:00 9 13 Norte 39 Norte 0 -- -- 86
2018-01-31 22:00:00 9.2 13 Norte 37 Norte 0.2 -- -- 91
2018-01-31 21:00:00 9.7 10 Norte 34 Norte 2.4 -- -- 94
2018-01-31 20:00:00 9.6 14 Norte 43 Noroeste 0.2 -- -- 88
2018-01-31 19:00:00 9.8 12 Norte 33 Norte 0 -- -- 83
2018-01-31 18:00:00 10.5 8 Nordeste 28 Este 0 -- -- 78
2018-01-31 17:00:00 10.7 9 Norte 31 Nordeste 0 -- -- 83
2018-01-31 16:00:00 11.2 8 Norte 28 Noroeste 0 -- -- 81
2018-01-31 15:00:00 11 10 Noroeste 28 Oeste 0 -- -- 80
2018-01-31 14:00:00 12.8 7 Noroeste 45 Norte 0 -- -- 71
2018-01-31 13:00:00 13.4 10 Nordeste 38 Norte 0 -- -- 65
2018-01-31 12:00:00 12.1 10 Norte 30 Norte 0 -- -- 74
2018-01-31 11:00:00 11.1 6 Norte 30 Norte 0 -- -- 77
2018-01-31 10:00:00 10.8 10 Nordeste 30 Noroeste 0 -- -- 77
2018-01-31 09:00:00 9.1 9 Norte 31 Norte 0 -- -- 80
2018-01-31 08:00:00 7.3 7 Norte 27 Norte 0 -- -- 80
2018-01-31 07:00:00 7.4 13 Norte 32 Norte 0 -- -- 76
2018-01-31 06:00:00 6.8 7 Nordeste 21 Norte 0 -- -- 73
2018-01-31 05:00:00 6.6 7 Norte 23 Norte 0 -- -- 83
2018-01-31 04:00:00 6.8 8 Norte 39 Norte 0 -- -- 85
2018-01-31 03:00:00 6.9 15 Norte 34 Nordeste 0 -- -- 84
2018-01-31 02:00:00 7.2 12 Norte 39 Norte 0 -- -- 85
2018-01-31 01:00:00 7.4 9 Norte 30 Norte 0 -- -- 80
2018-01-31 00:00:00 7.6 12 Norte 37 Nordeste 0 -- -- 84
2018-01-30 23:00:00 7.6 14 Norte 34 Norte 0 -- -- 84
2018-01-30 22:00:00 7.7 11 Norte 33 Norte 0 -- -- 85
2018-01-30 21:00:00 7.7 9 Nordeste 28 Norte 0 -- -- 87
2018-01-30 20:00:00 7.8 9 Norte 40 Nordeste 0 -- -- 85
2018-01-30 19:00:00 7.9 11 Norte 35 Nordeste 0 -- -- 84
2018-01-30 18:00:00 9.3 12 Norte 33 Nordeste 0 -- -- 80
2018-01-30 17:00:00 10.8 10 Nordeste 30 Norte 0 -- -- 85
2018-01-30 16:00:00 11.8 12 Nordeste 34 Nordeste 0 -- -- 75
2018-01-30 15:00:00 11.9 12 Nordeste 30 Norte 0 -- -- 80
2018-01-30 14:00:00 11.8 9 Norte 40 Noroeste 0.2 -- -- 83
2018-01-30 13:00:00 10.8 11 Nordeste 37 Noroeste 0 -- -- 87
2018-01-30 12:00:00 10.4 11 Noroeste 35 Noroeste 0.2 -- -- 88
2018-01-30 11:00:00 10.1 9 Norte 32 Nordeste 0.6 -- -- 90
2018-01-30 10:00:00 10.5 10 Noroeste 32 Nordeste 0 -- -- 89
2018-01-30 09:00:00 9.9 6 Nordeste 58 Nordeste 0.2 -- -- 94
2018-01-30 08:00:00 9 8 Noroeste 34 Noroeste 1 -- -- 96
2018-01-30 07:00:00 8.9 11 Noroeste 30 Noroeste 0.2 -- -- 92
2018-01-30 06:00:00 8.5 7 Norte 33 Norte 0 -- -- 92
2018-01-30 05:00:00 8.2 11 Norte 32 Noroeste 0 -- -- 90
2018-01-30 04:00:00 8.4 5 Noroeste 26 Norte 0 -- -- 88
2018-01-30 03:00:00 8.1 9 Norte 31 Norte 0 -- -- 90
2018-01-30 02:00:00 7.5 8 Norte 24 Norte 0 -- -- 87
2018-01-30 01:00:00 8 6 Nordeste 23 Este 0 -- -- 89
2018-01-30 00:00:00 7.9 6 Norte 21 Nordeste 0 -- -- 86
2018-01-29 23:00:00 7.7 8 Nordeste 25 Nordeste 0 -- -- 88
2018-01-29 22:00:00 8.1 10 Nordeste 31 Nordeste 0 -- -- 82
2018-01-29 21:00:00 7.3 10 Norte 31 Norte 0 -- -- 84
2018-01-29 20:00:00 7.1 11 Norte 32 Norte 0 -- -- 83
2018-01-29 19:00:00 7.4 11 Norte 38 Norte 0 -- -- 87
2018-01-29 18:00:00 8 11 Norte 30 Norte 1.4 -- -- 88
2018-01-29 17:00:00 10.4 6 Norte 41 Noroeste 0 -- -- 74
2018-01-29 16:00:00 11.3 13 Norte 42 Norte 0 -- -- 71
2018-01-29 15:00:00 12.1 13 Norte 36 Norte 0 -- -- 67
2018-01-29 14:00:00 11.3 8 Norte 40 Noroeste 0 -- -- 74
2018-01-29 13:00:00 11.5 11 Noroeste 30 Noroeste 0 -- -- 72
2018-01-29 12:00:00 10.9 12 Norte 49 Noroeste 0 -- -- 72
2018-01-29 11:00:00 9.7 11 Norte 30 Norte 0 -- -- 74
2018-01-29 10:00:00 10.2 8 Nordeste 23 Nordeste 0 -- -- 73
2018-01-29 09:00:00 8.1 3 Sudeste 16 Nordeste 0 -- -- 88
2018-01-29 08:00:00 6.8 4 Este 23 Nordeste 0 -- -- 88
2018-01-29 07:00:00 7.1 6 Nordeste 28 Nordeste 0 -- -- 85
2018-01-29 06:00:00 6.4 8 Norte 20 Norte 0 -- -- 88
2018-01-29 05:00:00 6 8 Norte 18 Norte 0 -- -- 82
2018-01-29 04:00:00 7.1 9 Norte 26 Nordeste 0 -- -- 81
2018-01-29 03:00:00 8 8 Nordeste 17 Nordeste 0 -- -- 87
2018-01-29 02:00:00 7.5 8 Nordeste 22 Nordeste 0 -- -- 84
2018-01-29 01:00:00 7.2 3 Este 18 Nordeste 0 -- -- 83
2018-01-29 00:00:00 7.2 4 Sudeste 23 Nordeste 0 -- -- 81
2018-01-28 23:00:00 7.9 8 Norte 28 Nordeste 0 -- -- 87
2018-01-28 22:00:00 7.9 12 Nordeste 37 Norte 0 -- -- 86
2018-01-28 21:00:00 7.2 12 Norte 37 Norte 0 -- -- 84
2018-01-28 20:00:00 7.8 9 Nordeste 39 Este 0 -- -- 86
2018-01-28 19:00:00 8.2 12 Nordeste 40 Este 0 -- -- 89
2018-01-28 18:00:00 8.9 13 Nordeste 36 Nordeste 0 -- -- 89
2018-01-28 17:00:00 9.7 13 Nordeste 37 Este 0 -- -- 86
2018-01-28 16:00:00 9.3 13 Nordeste 42 Este 0.2 -- -- 93
2018-01-28 15:00:00 10.1 14 Nordeste 37 Este 0 -- -- 90
2018-01-28 14:00:00 11.4 15 Nordeste 46 Este 0 -- -- 77
2018-01-28 13:00:00 11.7 15 Nordeste 42 Nordeste 0 -- -- 76
2018-01-28 12:00:00 11 16 Nordeste 52 Nordeste 0 -- -- 81
2018-01-28 11:00:00 11.1 13 Nordeste 50 Este 0 -- -- 79
2018-01-28 10:00:00 10.9 15 Nordeste 51 Nordeste 0 -- -- 77
2018-01-28 09:00:00 9.3 17 Nordeste 46 Nordeste 0.2 -- -- 85
2018-01-28 08:00:00 8.7 13 Nordeste 34 Nordeste 0 -- -- 88
2018-01-28 07:00:00 8.4 10 Nordeste 38 Nordeste 0 -- -- 92
2018-01-28 06:00:00 8.2 8 Nordeste 33 Norte 0 -- -- 88
2018-01-28 05:00:00 8.6 13 Nordeste 56 Norte 0 -- -- 94
2018-01-28 04:00:00 8.4 9 Norte 38 Nordeste 0 -- -- 87
2018-01-28 03:00:00 8.5 15 Nordeste 41 Nordeste 0 -- -- 90
2018-01-28 02:00:00 8.4 13 Norte 48 Norte 0 -- -- 90
2018-01-28 01:00:00 8.8 12 Nordeste 36 Norte 0 -- -- 94
2018-01-28 00:00:00 8.8 11 Norte 39 Este 0 -- -- 89
2018-01-27 23:00:00 8.8 13 Nordeste 48 Norte 0 -- -- 87
2018-01-27 22:00:00 9 10 Nordeste 35 Nordeste 0 -- -- 89
2018-01-27 21:00:00 8.6 10 Norte 51 Norte 0 -- -- 85
2018-01-27 20:00:00 8.3 17 Norte 46 Norte 0 -- -- 84
2018-01-27 19:00:00 8.8 12 Nordeste 38 Nordeste 0 -- -- 85
2018-01-27 18:00:00 9.4 19 Norte 57 Norte 0 -- -- 78
2018-01-27 17:00:00 11 13 Nordeste 42 Este 0 -- -- 82
2018-01-27 16:00:00 10.9 13 Nordeste 45 Nordeste 0 -- -- 77
2018-01-27 15:00:00 11.7 14 Nordeste 42 Nordeste 0 -- -- 76
2018-01-27 14:00:00 11.5 12 Nordeste 51 Norte 0 -- -- 76
2018-01-27 13:00:00 11 15 Nordeste 42 Nordeste 0 -- -- 83
2018-01-27 12:00:00 11.5 13 Nordeste 49 Norte 0 -- -- 72
2018-01-27 11:00:00 10.2 14 Nordeste 63 Este 0 -- -- 84
2018-01-27 10:00:00 9.2 13 Nordeste 49 Noroeste 0 -- -- 91
2018-01-27 09:00:00 8.7 16 Nordeste 44 Este 0 -- -- 86
2018-01-27 08:00:00 8.2 18 Nordeste 51 Nordeste 0 -- -- 88
2018-01-27 07:00:00 8.1 21 Nordeste 50 Nordeste 0 -- -- 88
2018-01-27 06:00:00 8 16 Nordeste 44 Este 0 -- -- 87
2018-01-27 05:00:00 8 17 Nordeste 51 Norte 0 -- -- 89
2018-01-27 04:00:00 8.2 18 Nordeste 54 Norte 0 -- -- 92
2018-01-27 03:00:00 8.2 14 Nordeste 42 Nordeste 0 -- -- 87
2018-01-27 02:00:00 8.3 19 Nordeste 55 Este 0 -- -- 87
2018-01-27 01:00:00 8.5 18 Nordeste 51 Este 0 -- -- 91
2018-01-27 00:00:00 8.7 14 Nordeste 47 Nordeste 0 -- -- 87
2018-01-26 23:00:00 8.8 15 Nordeste 45 Nordeste 0 -- -- 90
2018-01-26 22:00:00 8.6 18 Nordeste 52 Nordeste 0 -- -- 89
2018-01-26 21:00:00 9 19 Nordeste 45 Nordeste 0 -- -- 93
2018-01-26 20:00:00 9 15 Nordeste 52 Este 0.2 -- -- 95
2018-01-26 19:00:00 9.5 14 Nordeste 38 Este 0.4 -- -- 96
2018-01-26 18:00:00 10.2 14 Nordeste 36 Este 0 -- -- 84
2018-01-26 17:00:00 10.9 11 Nordeste 37 Norte 0 -- -- 80
2018-01-26 16:00:00 11.3 9 Norte 34 Norte 0 -- -- 84
2018-01-26 15:00:00 11.3 11 Nordeste 40 Este 0 -- -- 86
2018-01-26 14:00:00 10.7 8 Nordeste 33 Nordeste 0.6 -- -- 97
2018-01-26 13:00:00 11.3 10 Nordeste 34 Nordeste 0 -- -- 95
2018-01-26 12:00:00 10.9 13 Nordeste 52 Este 0 -- -- 97
2018-01-26 11:00:00 12.9 10 Nordeste 42 Nordeste 0 -- -- 78
2018-01-26 10:00:00 11.5 19 Nordeste 46 Este 0 -- -- 81
2018-01-26 09:00:00 11.1 15 Nordeste 44 Este 0 -- -- 76
2018-01-26 08:00:00 8.9 12 Norte 37 Nordeste 0 -- -- 80
2018-01-26 07:00:00 8.8 11 Nordeste 42 Norte 0 -- -- 84
2018-01-26 06:00:00 9 11 Norte 42 Norte 0 -- -- 75
2018-01-26 05:00:00 8.8 10 Norte 35 Norte 0 -- -- 79
2018-01-26 04:00:00 8.8 9 Nordeste 33 Norte 0 -- -- 79
2018-01-26 03:00:00 9 11 Nordeste 43 Norte 0 -- -- 87
2018-01-26 02:00:00 9.1 11 Este 29 Sudeste 0 -- -- 79
2018-01-26 01:00:00 9.4 6 Nordeste 26 Este 0 -- -- 69
2018-01-26 00:00:00 8.8 11 Nordeste 30 Nordeste 0 -- -- 86
2018-01-25 23:00:00 9 9 Nordeste 33 Nordeste 0 -- -- 84
2018-01-25 22:00:00 10.5 8 Este 25 Norte 0 -- -- 61
2018-01-25 21:00:00 10.3 10 Norte 26 Norte 0 -- -- 62
2018-01-25 20:00:00 10.6 12 Norte 25 Norte 0 -- -- 53
2018-01-25 19:00:00 11.5 7 Norte 13 Noroeste 0 -- -- 35
2018-01-25 18:00:00 16.1 3 Sudeste 10 Este 0 -- -- 42
2018-01-25 17:00:00 16.9 5 Sudeste 14 Este 0 -- -- 18
2018-01-25 16:00:00 17.1 7 Sudeste 13 Sur 0 -- -- 61
2018-01-25 15:00:00 17.1 6 Sudeste 15 Nordeste 0 -- -- 62
2018-01-25 14:00:00 17.1 7 Sudeste 14 Sur 0 -- -- 59
2018-01-25 13:00:00 16.3 8 Sudeste 16 Sudeste 0 -- -- 63
2018-01-25 12:00:00 16.4 8 Sudeste 15 Sudeste 0 -- -- 63
2018-01-25 11:00:00 17.2 8 Sudeste 12 Sudeste 0 -- -- 59
2018-01-25 10:00:00 16.9 6 Este 14 Sudeste 0 -- -- 25
2018-01-25 09:00:00 10 5 Norte 10 Norte 0 -- -- 53
2018-01-25 08:00:00 6.8 8 Norte 11 Norte 0 -- -- 47
2018-01-25 07:00:00 7.1 8 Norte 10 Norte 0 -- -- 47
2018-01-25 06:00:00 7.3 9 Norte 10 Norte 0 -- -- 45
2018-01-25 05:00:00 7.5 8 Norte 13 Norte 0 -- -- 45
2018-01-25 04:00:00 8 6 Norte 12 Norte 0 -- -- 44
2018-01-25 03:00:00 8.1 7 Norte 12 Norte 0 -- -- 44
2018-01-25 02:00:00 8.2 7 Norte 10 Norte 0 -- -- 42
2018-01-25 01:00:00 8.3 6 Norte 9 Norte 0 -- -- 39
2018-01-25 00:00:00 8.5 6 Norte 10 Norte 0 -- -- 38
2018-01-24 23:00:00 8.9 6 Norte 11 Norte 0 -- -- 40
2018-01-24 22:00:00 8.9 5 Noroeste 9 Norte 0 -- -- 38
2018-01-24 21:00:00 9.2 6 Norte 9 Norte 0 -- -- 38
2018-01-24 20:00:00 9.5 6 Norte 10 Norte 0 -- -- 39
2018-01-24 19:00:00 11.6 7 Norte 9 Norte 0 -- -- 41
2018-01-24 18:00:00 16.1 2 Nordeste 10 Este 0 -- -- 35
2018-01-24 17:00:00 16.3 6 Este 14 Nordeste 0 -- -- 32
2018-01-24 16:00:00 18.4 7 Este 13 Sudeste 0 -- -- 19
2018-01-24 15:00:00 18.2 8 Este 15 Nordeste 0 -- -- 24
2018-01-24 14:00:00 18.6 6 Este 15 Este 0 -- -- 22
2018-01-24 13:00:00 17.6 6 Este 15 Este 0 -- -- 30
2018-01-24 12:00:00 14.9 6 Este 27 Este 0 -- -- 72
2018-01-24 11:00:00 17.1 9 Este 27 Nordeste 0 -- -- 29
2018-01-24 10:00:00 17.3 8 Sudeste 23 Este 0 -- -- 24
2018-01-24 09:00:00 13.6 5 Nordeste 12 Este 0 -- -- 33
2018-01-24 08:00:00 9.5 6 Norte 13 Norte 0 -- -- 42
2018-01-24 07:00:00 13.1 6 Nordeste 23 Este 0 -- -- 30
2018-01-24 06:00:00 10.9 4 Nordeste 13 Este 0 -- -- 34
2018-01-24 05:00:00 9.6 5 Norte 15 Norte 0 -- -- 36
2018-01-24 04:00:00 9.4 7 Norte 17 Nordeste 0 -- -- 35
2018-01-24 03:00:00 9.2 6 Norte 12 Norte 0 -- -- 37
2018-01-24 02:00:00 8.5 6 Norte 12 Noroeste 0 -- -- 40
2018-01-24 01:00:00 8.1 6 Norte 10 Noroeste 0 -- -- 45
2018-01-24 00:00:00 8.3 5 Norte 9 Norte 0 -- -- 44
2018-01-23 23:00:00 8.3 6 Norte 11 Norte 0 -- -- 45
2018-01-23 22:00:00 8.3 7 Norte 9 Noroeste 0 -- -- 45
2018-01-23 21:00:00 8.5 7 Norte 11 Norte 0 -- -- 43
2018-01-23 20:00:00 9 8 Norte 10 Norte 0 -- -- 44
2018-01-23 19:00:00 11.2 6 Norte 9 Norte 0 -- -- 43
2018-01-23 18:00:00 14.5 2 Norte 7 Sudeste 0 -- -- 38
2018-01-23 17:00:00 15.9 5 Sudeste 12 Sudeste 0 -- -- 23
2018-01-23 16:00:00 17 5 Sudeste 14 Sudeste 0 -- -- 25
2018-01-23 15:00:00 16.7 8 Este 17 Nordeste 0 -- -- 50
2018-01-23 14:00:00 15 8 Este 17 Sudeste 0 -- -- 52
2018-01-23 13:00:00 13.8 8 Este 17 Este 0 -- -- 63
2018-01-23 12:00:00 11.9 8 Sudeste 21 Sudeste 0 -- -- 88
2018-01-23 11:00:00 14.3 10 Este 16 Sudeste 0 -- -- 76
2018-01-23 10:00:00 14.4 3 Sudeste 9 Sudeste 0 -- -- 67
2018-01-23 09:00:00 10 3 Norte 13 Nordeste 0 -- -- 70
2018-01-23 08:00:00 9.7 7 Nordeste 23 Norte 0 -- -- 89
2018-01-23 07:00:00 9.2 6 Norte 14 Norte 0 -- -- 37
2018-01-23 06:00:00 10.1 6 Norte 15 Norte 0 -- -- 35
2018-01-23 05:00:00 8.1 4 Nordeste 8 Nordeste 0 -- -- 38
2018-01-23 04:00:00 8.2 4 Nordeste 9 Nordeste 0 -- -- 43
2018-01-23 03:00:00 10.1 5 Norte 15 Nordeste 0 -- -- 39
2018-01-23 02:00:00 9.6 4 Norte 19 Nordeste 0 -- -- 37
2018-01-23 01:00:00 12.4 7 Nordeste 25 Noroeste 0 -- -- 30
2018-01-23 00:00:00 13.7 13 Nordeste 29 Nordeste 0 -- -- 24
2018-01-22 23:00:00 11.9 8 Norte 22 Norte 0 -- -- 22
2018-01-22 22:00:00 11.9 9 Norte 24 Norte 0 -- -- 27
2018-01-22 21:00:00 11.9 8 Norte 22 Norte 0 -- -- 29
2018-01-22 20:00:00 11 9 Norte 21 Norte 0 -- -- 32
2018-01-22 19:00:00 10.6 6 Norte 13 Norte 0 -- -- 42
2018-01-22 18:00:00 15.1 0 Calma 9 Este 0 -- -- 42
2018-01-22 17:00:00 16.1 6 Este 13 Este 0 -- -- 54
2018-01-22 16:00:00 17.2 7 Este 15 Sudeste 0 -- -- 43
2018-01-22 15:00:00 17 8 Sudeste 17 Este 0 -- -- 40
2018-01-22 14:00:00 16.4 10 Sudeste 19 Este 0 -- -- 41
2018-01-22 13:00:00 16.5 12 Este 22 Sudeste 0 -- -- 34
2018-01-22 12:00:00 16.2 10 Este 23 Sudeste 0 -- -- 30
2018-01-22 11:00:00 16 9 Este 20 Este 0 -- -- 32
2018-01-22 10:00:00 15.5 8 Este 17 Sudeste 0 -- -- 31
2018-01-22 09:00:00 10 4 Nordeste 10 Nordeste 0 -- -- 56
2018-01-22 08:00:00 6.6 7 Norte 10 Norte 0 -- -- 60
2018-01-22 07:00:00 6.9 7 Norte 10 Norte 0 -- -- 57
2018-01-22 06:00:00 7.3 7 Norte 13 Este 0 -- -- 52
2018-01-22 05:00:00 8.3 5 Norte 17 Norte 0 -- -- 42
2018-01-22 04:00:00 9.6 6 Norte 19 Nordeste 0 -- -- 40
2018-01-22 03:00:00 11.5 7 Norte 22 Nordeste 0 -- -- 32
2018-01-22 02:00:00 11.8 9 Norte 24 Norte 0 -- -- 31
2018-01-22 01:00:00 12.9 5 Norte 26 Noroeste 0 -- -- 30
2018-01-22 00:00:00 12.9 10 Noroeste 26 Norte 0 -- -- 32